Regional Weather Roundup
Issued by NWS Sterling, VA

Home | Current Version | Previous Version | Text Only | Print | Product List | Glossary Off
Versions: 1 2 3 4 5 6 7 8 9 10 11 12 13 14 15 16 17 18 19 20 21 22 23 24 25 26 27 28 29 30 31 32 33 34 35 36 37 38 39 40 41 42 43 44 45 46 47 48 49 50

000
ASUS41 KLWX 011010
RWRLWX

REGIONAL WEATHER ROUNDUP
NATIONAL WEATHER SERVICE BALTIMORE MD/WASHINGTON DC
500 AM EST SUN FEB 01 2015

Note: "FAIR" indicates few or no clouds below 12,000 feet
with no significant weather and/or obstructions to visibility.
 TC=TEMPERATURE CELSIUS

 * =Non NWS site. Station does not report precipitation (e.g. rain,
    snow, etc.), thunder, or fog.

DCZ001-MDZ009-015-VAZ040>042-051-053>054-011100-
WASHINGTON METRO

CITY           SKY/WX    TMP DP  RH WIND       PRES   REMARKS
WASHINGTON NAT CLOUDY    29  20  69 S6        30.28F
DULLES         CLOUDY    24  17  74 CALM      30.25F
ANDREWS AFB    MOCLDY    24  16  70 S3        30.25F
FT BELVOIR     CLOUDY    23  18  81 CALM      30.28F
QUANTICO       CLOUDY    26  17  68 NW5       30.29F
COLLEGE PARK*  CLOUDY    23  19  86 CALM      30.27F
LEESBURG*      CLOUDY    28  19  69 CALM      30.25F
MANASSAS*      CLOUDY    23  21  93 CALM      30.26F
GAITHERSBURG*  CLOUDY    21  16  79 CALM      30.27F

$$

MDZ006>007-011-014-011100-
BALTIMORE METRO

CITY           SKY/WX    TMP DP  RH WIND       PRES   REMARKS
BWI AIRPORT    CLOUDY    22  14  71 CALM      30.26S
MD SCIENCE CTR   N/A     25  13  60 MISG      30.27R
MARTIN STATE   PTCLDY    21  19  93 CALM      30.30R
ANNAPOLIS      PTCLDY    23  12  62 CALM      30.28R
FORT MEADE*    MOCLDY    19  16  86 CALM      30.28F

$$

MDZ012-015-019>023-011100-
MARYLAND EASTERN SHORE

CITY           SKY/WX    TMP DP  RH WIND       PRES   REMARKS
OCEAN CITY     CLEAR     18  13  80 CALM      30.29S
SALISBURY      CLEAR     19  12  74 CALM      30.28F
BAY BRIDGE AP*   N/A     23  19  86 CALM      30.29R
CAMBRIDGE*     CLEAR     23  18  80 CALM      30.28S
EASTON*        CLEAR     22  18  85 CALM      30.32R

$$

MDZ017>025-011100-
SOUTHERN MARYLAND

CITY           SKY/WX    TMP DP  RH WIND       PRES   REMARKS
PATUXENT RIVER PTCLDY    23  14  68 SW3       30.28R
ST INIGOES     NOT AVBL
LEONARDTOWN*   PTCLDY    23  12  63 CALM      30.29S

$$

MDZ003>005-011100-
NORTH CENTRAL MARYLAND

CITY           SKY/WX    TMP DP  RH WIND       PRES   REMARKS
FREDERICK*     CLOUDY    27  16  63 CALM      30.27F
HAGERSTOWN APT CLOUDY    27  10  49 SE3       30.22S
WESTMINSTER*   CLOUDY    25  16  68 CALM      30.22R

$$

MDZ501>502-011100-
WESTERN MARYLAND

CITY           SKY/WX    TMP DP  RH WIND       PRES   REMARKS
OAKLAND*       CLOUDY    23  23 100 W9        30.09S FOG     WCI  13
CUMBERLAND*    CLOUDY    27  19  74 CALM      30.25S

$$

VAZ025>031-011100-
SHENANDOAH VALLEY

CITY           SKY/WX    TMP DP  RH WIND       PRES   REMARKS
WINCHESTER*    CLOUDY    30  12  47 CALM      30.22R
FRONT ROYAL*   CLOUDY    27  19  74 CALM      30.22R
LURAY*         CLOUDY    30  21  69 CALM      30.23R
NEW MARKET*    CLOUDY    28  21  76 SW3       30.22R
STAUNTON*      CLOUDY    30  22  71 CALM      30.23R
WAYNESBORO*    CLOUDY    35   6  30 SW3       30.20R

$$

WVZ021-048>050-054>055-011100-
EASTERN WEST VIRGINIA PANHANDLE

CITY           SKY/WX    TMP DP  RH WIND       PRES   REMARKS
MARTINSBURG    CLOUDY    28  15  58 CALM      30.23S
PETERSBURG*    CLOUDY    28  15  57 E3        30.21S

$$

VAZ036>039-050-011100-
CENTRAL FOOTHILLS

CITY           SKY/WX    TMP DP  RH WIND       PRES   REMARKS
CHARLOTTESVILL CLOUDY    29  11  47 NE3       30.24S
CULPEPER*      MOCLDY    27  19  74 CALM      30.27R
ORANGE*        CLOUDY    28  21  74 CALM      30.28R
GORDONSVILLE*  CLOUDY    28  16  61 CALM      30.26R
WARRENTON*     CLOUDY    27  25  92 CALM      30.25S

$$

VAZ055>057-011100-
NORTH AND CENTRAL PIEDMONT

CITY           SKY/WX    TMP DP  RH WIND       PRES   REMARKS
FREDERICKSBRG* PTCLDY    26  19  77 CALM      30.27S
STAFFORD*      MOCLDY    24  17  77 CALM      30.31S

$$

NCZ024-NYZ072-PAZ021-071-VAZ022-071-011100-
OTHER REGIONAL OBSERVATIONS

CITY           SKY/WX    TMP DP  RH WIND       PRES   REMARKS
NEW YORK CITY  PTCLDY    24   8  50 MISG      30.21S
PHILADELPHIA   CLOUDY    24  14  65 SW3       30.26S
PITTSBURGH     LGT SNOW  28  22  78 S3        30.16F
ROANOKE        CLOUDY    35  12  38 NE6       30.22F
RICHMOND       MOCLDY    26  14  60 CALM      30.27S
RALEIGH        CLOUDY    36  17  46 CALM      30.26F

$$

ANZ530>537-011100-
MARINE OBSERVATIONS

STATION/POSITION TIME  TEMP    WIND        PRES
                       AIR SEA DIR/SP/G
                 (UTC) (F)     (DEG/KT/KT) (MB)
THOMAS PT LIGHT  1000   29 34  230/  4/  4 1026.5R
BALT KEY BRIDGE  1000   26     220/  6/  7 1025.2R
COVE POINT       1000   29     240/  3/  3 1025.4R
LEWISETTA        1000   26 33     CALM     1025.2F
SOLOMONS ISLAND  1000      35                N/A
PINEY POINT      1000          110/  1/  1   N/A

$$




USA.gov is the U.S. government's official web portal to all federal, state and local government web resources and services.